Location: Chavenne
(46.6022°N, 3.2951°E)
Time: 03:57:11
(UTC+00:00)

USA 234 - Pass Details

Date: 09 April 2020
Orbit: 1102 x 1106 km, 123.0° (Epoch: 14 May)

Event Time Altitude Azimuth Distance (km) Brightness Sun altitude
Rises 21:35:10 0° 52° (NE) 3,926 6.2 -27.9°
Reaches altitude 10° 21:37:39 10° 53° (NE) 2,966 5.5 -28.1°
Maximum altitude 21:44:13 89° 323° (NW) 1,108 3.1 -28.8°
Drops below altitude 10° 21:50:46 10° 236° (SW) 2,957 5.5 -29.5°
Sets 21:53:15 0° 236° (SW) 3,913 6.2 -29.7°
